SWA924 MMUN-MWCR

Flight info

Callsign SWA924
Flight time 0h 54m
Altitude 37000
Route CUN3A CUN UM782 TAKUX DCT MAMBI UR640 GCM
Aircraft B737/M-SDE2E3FGHIRWXY/LB1

Departure

Time 2026-05-06 18:14
Airport Cancún International Airport (MMUN)

Arrival

Time 2026-05-06 19:09
Airport Owen Roberts International Airport (MWCR)
Time Latitude Longitude Altitude Speed Heading
2026-05-06 17:56 21.04701 -86.88341 23 ft 0 kts 125°
2026-05-06 18:08 21.04715 -86.88362 32 ft 4 kts 132°
2026-05-06 18:08 21.04735 -86.88381 26 ft 4 kts 151°
2026-05-06 18:08 21.04757 -86.88387 27 ft 4 kts 204°
2026-05-06 18:08 21.04766 -86.88382 26 ft 1 kts 214°
2026-05-06 18:10 21.04754 -86.88391 25 ft 9 kts 215°
2026-05-06 18:10 21.04723 -86.88413 23 ft 11 kts 217°
2026-05-06 18:11 21.04663 -86.88456 23 ft 10 kts 213°
2026-05-06 18:11 21.04588 -86.88509 24 ft 15 kts 213°
2026-05-06 18:11 21.04488 -86.88581 26 ft 18 kts 212°
2026-05-06 18:11 21.04449 -86.88650 25 ft 9 kts 300°
2026-05-06 18:12 21.04482 -86.88705 24 ft 9 kts 304°
2026-05-06 18:12 21.04517 -86.88761 25 ft 9 kts 304°
2026-05-06 18:12 21.04551 -86.88816 24 ft 9 kts 303°
2026-05-06 18:12 21.04584 -86.88869 24 ft 9 kts 303°
2026-05-06 18:13 21.04622 -86.88931 24 ft 11 kts 301°
2026-05-06 18:13 21.04612 -86.89023 23 ft 18 kts 219°
2026-05-06 18:13 21.04502 -86.89042 22 ft 19 kts 131°
2026-05-06 18:13 21.04405 -86.88889 23 ft 51 kts 124°
2026-05-06 18:14 21.04036 -86.88286 62 ft 135 kts 123°
2026-05-06 18:14 21.03421 -86.87311 518 ft 177 kts 127°
2026-05-06 18:14 21.02662 -86.86173 1339 ft 189 kts 126°
2026-05-06 18:14 21.01767 -86.85071 2110 ft 209 kts 138°
2026-05-06 18:15 21.00591 -86.83952 2488 ft 241 kts 137°
2026-05-06 18:15 20.99336 -86.82774 3611 ft 237 kts 139°
2026-05-06 18:15 20.98059 -86.81589 4592 ft 249 kts 139°
2026-05-06 18:15 20.96755 -86.80353 5600 ft 259 kts 138°
2026-05-06 18:16 20.95392 -86.79044 6634 ft 266 kts 138°
2026-05-06 18:16 20.94005 -86.77702 7652 ft 271 kts 137°
2026-05-06 18:16 20.92595 -86.76332 8676 ft 276 kts 136°
2026-05-06 18:16 20.91150 -86.74922 9644 ft 283 kts 136°
2026-05-06 18:17 20.89685 -86.73490 10538 ft 291 kts 135°
2026-05-06 18:17 20.88120 -86.71958 10850 ft 319 kts 135°
2026-05-06 18:17 20.86463 -86.70336 11428 ft 333 kts 136°
2026-05-06 18:17 20.84723 -86.68636 12357 ft 334 kts 135°
2026-05-06 18:18 20.83021 -86.66974 13248 ft 339 kts 135°
2026-05-06 18:18 20.81255 -86.65248 13946 ft 347 kts 135°
2026-05-06 18:18 20.79460 -86.63493 14711 ft 351 kts 135°
2026-05-06 18:18 20.77641 -86.61717 15405 ft 357 kts 135°
2026-05-06 18:19 20.75796 -86.59919 16171 ft 360 kts 135°
2026-05-06 18:19 20.73930 -86.58111 16935 ft 364 kts 135°
2026-05-06 18:19 20.72036 -86.56279 17637 ft 370 kts 135°
2026-05-06 18:19 20.70114 -86.54423 18352 ft 374 kts 135°
2026-05-06 18:20 20.68829 -86.53182 18773 ft 377 kts 135°
2026-05-06 18:20 20.66235 -86.50676 19647 ft 381 kts 135°
2026-05-06 18:20 20.64263 -86.48773 20302 ft 384 kts 135°
2026-05-06 18:20 20.62270 -86.46848 20948 ft 387 kts 135°
2026-05-06 18:21 20.60943 -86.45567 21365 ft 390 kts 135°
2026-05-06 18:21 20.58924 -86.43618 21995 ft 393 kts 135°
2026-05-06 18:21 20.56881 -86.41648 22607 ft 397 kts 136°
2026-05-06 18:21 20.54820 -86.39659 23193 ft 401 kts 136°
2026-05-06 18:22 20.52742 -86.37656 23752 ft 404 kts 135°
2026-05-06 18:22 20.50646 -86.35636 24290 ft 406 kts 135°
2026-05-06 18:22 20.48543 -86.33610 24795 ft 408 kts 135°
2026-05-06 18:22 20.46423 -86.31569 25283 ft 412 kts 136°
2026-05-06 18:23 20.44317 -86.29540 25716 ft 416 kts 136°
2026-05-06 18:23 20.42156 -86.27461 26206 ft 418 kts 136°
2026-05-06 18:23 20.39993 -86.25379 26710 ft 421 kts 137°
2026-05-06 18:23 20.37803 -86.23274 27095 ft 426 kts 137°
2026-05-06 18:24 20.35593 -86.21150 27615 ft 427 kts 137°
2026-05-06 18:24 20.33378 -86.19021 28107 ft 430 kts 137°
2026-05-06 18:24 20.31140 -86.16871 28441 ft 436 kts 137°
2026-05-06 18:24 20.28873 -86.14693 28810 ft 440 kts 137°
2026-05-06 18:25 20.26588 -86.12498 29242 ft 443 kts 137°
2026-05-06 18:25 20.24323 -86.10323 29677 ft 445 kts 138°
2026-05-06 18:25 20.22010 -86.08103 30095 ft 448 kts 138°
2026-05-06 18:25 20.19686 -86.05873 30446 ft 451 kts 138°
2026-05-06 18:26 20.17343 -86.03626 30769 ft 454 kts 138°
2026-05-06 18:26 20.14989 -86.01369 31077 ft 457 kts 138°
2026-05-06 18:26 20.12613 -85.99092 31395 ft 460 kts 138°
2026-05-06 18:26 20.10254 -85.96831 31707 ft 463 kts 138°
2026-05-06 18:27 20.07856 -85.94535 32110 ft 462 kts 138°
2026-05-06 18:27 20.05509 -85.92210 32729 ft 458 kts 132°
2026-05-06 18:27 20.03621 -85.89489 33203 ft 457 kts 119°
2026-05-06 18:27 20.02330 -85.86408 33575 ft 459 kts 107°
2026-05-06 18:28 20.01662 -85.83090 33986 ft 458 kts 98°
2026-05-06 18:28 20.01215 -85.79739 34382 ft 458 kts 98°
2026-05-06 18:28 20.00781 -85.76382 34705 ft 459 kts 98°
2026-05-06 18:28 20.00345 -85.73023 35051 ft 458 kts 98°
2026-05-06 18:29 19.99901 -85.69683 35501 ft 456 kts 98°
2026-05-06 18:29 19.99454 -85.66382 35701 ft 459 kts 98°
2026-05-06 18:29 19.98990 -85.63017 36028 ft 458 kts 98°
2026-05-06 18:29 19.98523 -85.59674 36477 ft 455 kts 98°
2026-05-06 18:30 19.98055 -85.56336 36672 ft 459 kts 98°
2026-05-06 18:30 19.97580 -85.52969 36923 ft 459 kts 98°
2026-05-06 18:30 19.96635 -85.46280 37016 ft 464 kts 98°
2026-05-06 18:31 19.95668 -85.39441 37017 ft 471 kts 98°
2026-05-06 18:31 19.94685 -85.32512 37021 ft 476 kts 98°
2026-05-06 18:32 19.93694 -85.25542 37009 ft 478 kts 98°
2026-05-06 18:32 19.92704 -85.18597 37002 ft 472 kts 98°
2026-05-06 18:33 19.91718 -85.11707 37018 ft 470 kts 98°
2026-05-06 18:33 19.90735 -85.04851 37012 ft 469 kts 98°
2026-05-06 18:34 19.89750 -84.98011 37013 ft 468 kts 98°
2026-05-06 18:34 19.88760 -84.91157 37025 ft 471 kts 98°
2026-05-06 18:35 19.87762 -84.84256 37009 ft 474 kts 98°
2026-05-06 18:35 19.86766 -84.77368 37022 ft 475 kts 98°
2026-05-06 18:36 19.85757 -84.70438 37023 ft 474 kts 98°
2026-05-06 18:36 19.84753 -84.63556 37021 ft 470 kts 98°
2026-05-06 18:37 19.83753 -84.56713 37014 ft 467 kts 97°
2026-05-06 18:37 19.82758 -84.49918 37019 ft 464 kts 98°
2026-05-06 18:38 19.81764 -84.43149 37016 ft 463 kts 98°
2026-05-06 18:38 19.80774 -84.36434 37027 ft 463 kts 97°
2026-05-06 18:39 19.79767 -84.29620 37038 ft 470 kts 97°
2026-05-06 18:40 19.78240 -84.19325 37020 ft 469 kts 97°
2026-05-06 18:40 19.77220 -84.12473 37020 ft 469 kts 98°
2026-05-06 18:41 19.76202 -84.05651 37022 ft 467 kts 97°
2026-05-06 18:41 19.75189 -83.98880 37028 ft 467 kts 98°
2026-05-06 18:42 19.74167 -83.92069 37026 ft 466 kts 98°
2026-05-06 18:42 19.73145 -83.85273 37029 ft 466 kts 97°
2026-05-06 18:43 19.72121 -83.78478 37027 ft 466 kts 97°
2026-05-06 18:43 19.71093 -83.71687 37023 ft 465 kts 97°
2026-05-06 18:44 19.70065 -83.64899 37028 ft 465 kts 97°
2026-05-06 18:44 19.69041 -83.58161 37027 ft 465 kts 97°
2026-05-06 18:45 19.68008 -83.51383 37024 ft 465 kts 97°
2026-05-06 18:45 19.66971 -83.44592 37009 ft 465 kts 97°
2026-05-06 18:45 19.66447 -83.41164 36398 ft 472 kts 97°
2026-05-06 18:46 19.65921 -83.37733 35792 ft 469 kts 97°
2026-05-06 18:46 19.65400 -83.34343 35276 ft 463 kts 98°
2026-05-06 18:46 19.64882 -83.30978 34745 ft 459 kts 97°
2026-05-06 18:46 19.64370 -83.27655 34218 ft 454 kts 98°
2026-05-06 18:47 19.63868 -83.24401 33643 ft 451 kts 97°
2026-05-06 18:47 19.63357 -83.21094 33077 ft 446 kts 97°
2026-05-06 18:47 19.62864 -83.17899 32548 ft 441 kts 98°
2026-05-06 18:47 19.62369 -83.14696 32033 ft 437 kts 98°
2026-05-06 18:48 19.61881 -83.11538 31530 ft 432 kts 97°
2026-05-06 18:48 19.61395 -83.08404 31032 ft 428 kts 97°
2026-05-06 18:48 19.60913 -83.05294 30541 ft 424 kts 97°
2026-05-06 18:48 19.60435 -83.02217 30045 ft 421 kts 97°
2026-05-06 18:49 19.59960 -82.99162 29462 ft 417 kts 97°
2026-05-06 18:49 19.59490 -82.96146 28914 ft 412 kts 97°
2026-05-06 18:49 19.59026 -82.93169 28401 ft 407 kts 97°
2026-05-06 18:49 19.58566 -82.90225 27881 ft 403 kts 97°
2026-05-06 18:50 19.58110 -82.87308 27375 ft 398 kts 97°
2026-05-06 18:50 19.57658 -82.84418 26872 ft 394 kts 97°
2026-05-06 18:50 19.57217 -82.81600 26382 ft 391 kts 97°
2026-05-06 18:50 19.56773 -82.78767 25889 ft 387 kts 97°
2026-05-06 18:51 19.56333 -82.75960 25399 ft 384 kts 96°
2026-05-06 18:51 19.55895 -82.73173 24909 ft 381 kts 96°
2026-05-06 18:51 19.55460 -82.70408 24404 ft 379 kts 96°
2026-05-06 18:51 19.55028 -82.67657 23910 ft 377 kts 96°
2026-05-06 18:52 19.54596 -82.64916 23376 ft 375 kts 96°
2026-05-06 18:52 19.54167 -82.62195 22830 ft 372 kts 96°
2026-05-06 18:52 19.53741 -82.59498 22316 ft 369 kts 96°
2026-05-06 18:52 19.53319 -82.56827 21818 ft 365 kts 96°
2026-05-06 18:53 19.52903 -82.54194 21337 ft 361 kts 96°
2026-05-06 18:53 19.52493 -82.51609 20857 ft 358 kts 96°
2026-05-06 18:53 19.52083 -82.49016 20378 ft 355 kts 96°
2026-05-06 18:53 19.51674 -82.46440 19903 ft 352 kts 96°
2026-05-06 18:54 19.51270 -82.43891 19431 ft 350 kts 96°
2026-05-06 18:54 19.50868 -82.41358 18929 ft 348 kts 96°
2026-05-06 18:54 19.50465 -82.38823 18462 ft 347 kts 96°
2026-05-06 18:54 19.50065 -82.36304 17919 ft 346 kts 96°
2026-05-06 18:55 19.49664 -82.33791 17406 ft 343 kts 96°
2026-05-06 18:55 19.49268 -82.31305 16915 ft 340 kts 96°
2026-05-06 18:55 19.48880 -82.28875 16440 ft 337 kts 97°
2026-05-06 18:55 19.48490 -82.26429 15974 ft 335 kts 97°
2026-05-06 18:56 19.48102 -82.24004 15499 ft 332 kts 97°
2026-05-06 18:56 19.47716 -82.21590 15037 ft 330 kts 97°
2026-05-06 18:56 19.47333 -82.19201 14562 ft 329 kts 97°
2026-05-06 18:56 19.46950 -82.16808 14066 ft 329 kts 97°
2026-05-06 18:57 19.46568 -82.14424 13550 ft 328 kts 97°
2026-05-06 18:57 19.46186 -82.12046 13042 ft 326 kts 98°
2026-05-06 18:57 19.45810 -82.09700 12561 ft 323 kts 98°
2026-05-06 18:57 19.45433 -82.07358 12090 ft 320 kts 97°
2026-05-06 18:58 19.45056 -82.05037 11624 ft 318 kts 99°
2026-05-06 18:58 19.44447 -82.02822 11338 ft 310 kts 109°
2026-05-06 18:58 19.43646 -82.00683 10840 ft 311 kts 111°
2026-05-06 18:58 19.42812 -81.98602 10365 ft 311 kts 112°
2026-05-06 18:59 19.41982 -81.96535 10191 ft 299 kts 112°
2026-05-06 18:59 19.41189 -81.94540 10045 ft 288 kts 112°
2026-05-06 18:59 19.40424 -81.92594 9680 ft 285 kts 112°
2026-05-06 18:59 19.39673 -81.90662 9304 ft 282 kts 112°
2026-05-06 19:00 19.38933 -81.88748 8936 ft 279 kts 112°
2026-05-06 19:00 19.38202 -81.86851 8600 ft 275 kts 112°
2026-05-06 19:00 19.37485 -81.84984 8233 ft 273 kts 112°
2026-05-06 19:00 19.37013 -81.83754 7991 ft 271 kts 112°
2026-05-06 19:01 19.36068 -81.81291 7510 ft 269 kts 112°
2026-05-06 19:01 19.35366 -81.79460 7149 ft 267 kts 112°
2026-05-06 19:01 19.34679 -81.77668 6796 ft 265 kts 112°
2026-05-06 19:01 19.33987 -81.75863 6449 ft 263 kts 112°
2026-05-06 19:02 19.33301 -81.74073 6073 ft 261 kts 112°
2026-05-06 19:02 19.32620 -81.72299 5713 ft 259 kts 112°
2026-05-06 19:02 19.31946 -81.70542 5374 ft 256 kts 112°
2026-05-06 19:02 19.31279 -81.68803 5036 ft 254 kts 112°
2026-05-06 19:03 19.30615 -81.67073 4701 ft 252 kts 112°
2026-05-06 19:03 19.29957 -81.65359 4352 ft 251 kts 112°
2026-05-06 19:03 19.29300 -81.63648 4004 ft 249 kts 112°
2026-05-06 19:03 19.28656 -81.61970 3664 ft 248 kts 112°
2026-05-06 19:04 19.28013 -81.60297 3457 ft 241 kts 112°
2026-05-06 19:04 19.27394 -81.58686 3323 ft 232 kts 112°
2026-05-06 19:04 19.26798 -81.57138 3205 ft 222 kts 112°
2026-05-06 19:04 19.26226 -81.55651 3116 ft 213 kts 112°
2026-05-06 19:05 19.25679 -81.54230 3024 ft 203 kts 112°
2026-05-06 19:05 19.25349 -81.52824 2905 ft 195 kts 86°
2026-05-06 19:05 19.25601 -81.51415 2785 ft 200 kts 81°
2026-05-06 19:05 19.25904 -81.49977 2543 ft 200 kts 79°
2026-05-06 19:06 19.26241 -81.48551 2275 ft 200 kts 77°
2026-05-06 19:06 19.26582 -81.47122 2016 ft 200 kts 78°
2026-05-06 19:06 19.26918 -81.45709 1772 ft 196 kts 77°
2026-05-06 19:06 19.27137 -81.44787 1592 ft 193 kts 77°
2026-05-06 19:07 19.27459 -81.43432 1334 ft 185 kts 78°
2026-05-06 19:07 19.27771 -81.42119 1072 ft 184 kts 77°
2026-05-06 19:07 19.28167 -81.40470 842 ft 163 kts 79°
2026-05-06 19:07 19.28429 -81.39383 603 ft 146 kts 79°
2026-05-06 19:08 19.28584 -81.38693 447 ft 140 kts 80°
2026-05-06 19:08 19.28820 -81.37725 203 ft 136 kts 82°
2026-05-06 19:08 19.29039 -81.36770 38 ft 129 kts 79°
2026-05-06 19:08 19.29234 -81.35951 14 ft 96 kts 76°
2026-05-06 19:09 19.29337 -81.35572 14 ft 16 kts 38°
2026-05-06 19:09 19.29452 -81.35587 15 ft 17 kts 345°
2026-05-06 19:09 19.29474 -81.35621 16 ft 8 kts 289°
2026-05-06 19:09 19.29492 -81.35673 16 ft 7 kts 295°
2026-05-06 19:10 19.29536 -81.35691 14 ft 1 kts 348°